RH
32 34 30 29 34 42 41 42 41 47 53 61 69 79 79 75 74 77 82 83 79 80 80 80 79 74 75 76 78 75 71 70 66 60 54 52 54 52 41 29 27 33 39
30 33 29 29 32 37 37 41 42 48 56 62 61 61 64 68 71 73 80 87 89 88 90 87 83 79 79 77 75 75 75 77 77 73 68 64 60 57 55 49 33 35 40
29 30 30 30 31 33 37 39 42 47 62 66 59 57 60 63 67 76 90 90 90 93 91 88 83 79 73 71 72 75 75 75 77 75 73 74 72 66 63 63 53 36 34
31 30 32 33 33 33 37 38 40 46 60 78 74 71 67 61 63 73 89 96 97 97 95 90 84 82 79 74 69 68 73 75 78 77 77 76 73 69 70 66 67 56 41
32 34 35 36 34 36 36 39 38 42 56 71 80 77 70 65 68 69 71 80 90 89 93 94 92 91 83 79 77 71 64 58 64 71 73 72 70 62 64 67 65 67 67
33 36 36 37 37 37 39 41 39 42 50 63 79 76 72 66 62 63 66 63 69 80 90 93 92 91 88 82 78 80 76 70 65 59 47 46 43 42 45 51 56 59 71
35 37 36 38 38 37 43 44 43 43 47 59 67 75 79 75 70 63 61 62 70 75 90 85 86 87 86 81 76 67 73 75 79 76 71 63 55 40 32 34 41 49 61
37 41 40 40 41 46 44 45 47 50 53 62 66 73 75 83 74 70 59 55 58 67 70 84 82 87 84 82 81 74 59 57 66 72 82 80 70 72 59 40 34 37 41
41 45 40 41 43 58 54 50 45 52 56 60 66 67 63 65 64 57 52 53 55 63 64 68 81 85 88 84 86 85 82 78 75 67 63 63 55 61 67 66 48 42 37
43 45 45 43 44 62 67 64 55 52 54 63 65 62 55 50 50 50 52 52 51 52 57 63 73 79 85 90 90 89 86 85 85 83 83 75 66 61 52 52 59 54 51
41 44 44 45 49 53 54 64 69 60 56 57 55 53 51 49 49 49 49 49 48 48 51 58 71 83 87 88 96 89 89 91 90 91 93 92 93 84 77 66 49 48 59
39 43 42 44 42 44 51 56 62 59 52 53 54 53 51 51 52 52 50 48 49 50 51 53 64 78 87 94 90 88 90 90 94 94 92 94 92 90 85 80 77 72 64
38 43 43 45 45 46 49 54 56 54 56 55 54 53 53 51 51 52 52 51 49 48 48 50 54 65 83 87 91 91 91 88 90 90 90 90 91 90 89 89 83 82 83
40 45 48 49 49 46 47 51 54 58 56 54 57 52 53 53 53 52 53 52 52 51 50 51 51 52 65 82 92 93 95 91 91 88 89 90 89 88 87 88 87 87 86
44 44 44 51 51 54 57 51 54 51 56 53 57 53 47 53 54 55 54 55 55 54 52 51 54 53 51 62 78 90 96 97 93 92 93 93 92 89 90 91 89 87 88
46 51 55 57 58 61 59 61 54 54 62 52 50 55 55 48 52 55 56 55 54 53 50 49 50 52 53 50 52 66 81 87 87 91 92 94 88 84 85 89 92 93 95
50 50 55 71 66 62 62 64 63 60 57 55 59 54 53 48 48 51 55 56 54 53 51 49 47 47 50 53 51 48 52 58 70 80 80 87 87 84 83 77 86 87 90
54 56 59 61 62 63 63 65 67 65 66 60 61 60 55 51 49 48 51 53 52 54 54 52 51 50 49 48 52 53 50 46 50 52 56 67 73 77 77 76 76 76 83
57 58 59 62 66 64 71 70 68 71 70 71 66 60 58 58 52 51 50 52 49 50 53 53 52 54 53 52 48 50 50 47 43 46 49 48 50 54 60 69 65 69 69
59 61 62 63 65 69 64 72 70 72 70 72 70 64 62 57 52 52 52 52 55 53 52 52 51 53 52 53 52 46 47 46 43 40 42 44 43 44 46 52 57 60 52
61 64 66 66 69 70 72 68 72 77 78 78 69 67 66 62 56 54 55 55 54 56 53 52 52 51 51 52 51 50 44 41 39 35 35 35 34 35 40 40 43 47 47
61 67 69 71 74 73 75 72 84 81 82 78 78 78 68 61 61 57 57 56 57 59 56 56 53 56 57 50 50 52 48 42 38 33 28 27 27 27 26 28 35 36 36
67 70 73 75 79 79 74 80 86 89 85 84 82 80 77 66 63 62 59 59 58 61 60 59 60 56 54 56 51 51 49 47 44 39 34 30 28 27 26 25 24 24 27
75 78 79 81 84 87 82 84 92 88 92 90 91 85 78 73 68 64 61 60 58 60 62 60 59 57 57 53 52 50 50 49 48 46 41 37 33 31 29 28 27 26 25
74 79 82 84 90 90 91 96 95 93 89 89 89 86 84 79 75 70 67 63 60 60 60 60 60 59 58 56 54 51 48 47 47 48 48 44 39 36 33 31 30 29 28
70 72 75 80 84 86 89 91 92 95 96 95 93 91 88 83 80 76 74 70 68 66 63 60 60 59 58 57 56 56 54 53 51 49 48 50 49 43 39 37 35 33 31